Regional Weather Roundup
Issued by NWS

Home | Current Version | Previous Version | Graphics & Text | Print | Product List | Glossary On
Versions: 1 2 3 4 5 6 7 8 9 10 11 12 13 14 15 16 17 18 19 20 21 22 23 24 25 26 27 28 29 30 31 32 33 34 35 36 37 38 39 40 41 42 43 44 45 46 47 48 49 50
000
ASUS43 KLSX 290907
RWRMO

WEATHER SUMMARY FOR MISSOURI
NATIONAL WEATHER SERVICE SPRINGFIELD MO
400 AM CDT FRI MAY 29 2015

NOTE: "FAIR" INDICATES FEW OR NO CLOUDS BELOW 12,000 FEET WITH NO
       SIGNIFICANT WEATHER AND/OR OBSTRUCTIONS TO VISIBILITY.
       CURRENT SKY AND/OR WEATHER CONDITIONS ARE NOT AVAILABLE FOR
       CHILLICOTHE AND FARMINGTON.

MOZ001>031-035>038-043-044-053-054-291000-
...NORTHERN AND WESTERN MISSOURI...

CITY           SKY/WX    TMP DP  RH WIND       PRES   REMARKS
KANSAS CTY INT MOCLDY    62  61  96 SE5       29.93F
KANSAS C DTWN  CLOUDY    65  61  87 S5        29.93F
LEE`S SUMMIT   CLOUDY    63  61  93 VRB3      29.95S
ST JOSEPH      MOCLDY    64  62  93 SE3       29.92F
CHILLICOTHE      N/A     64  62  93 CALM      29.95S
KIRKSVILLE       N/A     64  64 100 CALM      29.96F

$$
MOZ066>068-077>081-088>096-101>105-291000-
...SOUTHWEST MISSOURI...

CITY           SKY/WX    TMP DP  RH WIND       PRES   REMARKS
SPRINGFIELD    MOCLDY    66  61  84 S8        29.98S
JOPLIN         MOCLDY    68  63  84 S8        29.95F

$$
MOZ032>034-039>042-045>050-055>058-069>072-291000-
...CENTRAL MISSOURI...

CITY           SKY/WX    TMP DP  RH WIND       PRES   REMARKS
COLUMBIA       CLOUDY    65  64  97 S7        29.97R
JEFFERSON CITY CLOUDY    67  64  90 E3        29.96S
ROLLA          CLOUDY    66  64  93 S6        29.99R
SEDALIA        CLOUDY    66  64  93 S6        29.96F
WHITEMAN AFB   CLOUDY    66  65  99 S7        29.93F
WARRENSBURG    CLOUDY    63  63 100 SE3       29.94F
OSAGE BEACH    CLOUDY    64  63  94 SE5       29.97F

$$
MOZ051-052-059>065-291000-
...EAST CENTRAL MISSOURI...

CITY           SKY/WX    TMP DP  RH WIND       PRES   REMARKS
ST LOUIS INTL  MOCLDY    73  64  73 S10       29.99F
SPIRIT OF STL  MOCLDY   N/A N/A N/A S5        29.98S
ST CHARLES     MOCLDY    71  65  81 S7        29.98F

$$
MOZ072>076-082>087-097>100-106>115-291000-
...SOUTH CENTRAL AND SOUTHEAST MISSOURI...

CITY           SKY/WX    TMP DP  RH WIND       PRES   REMARKS
CAPE GIRARDEAU CLEAR     66  65  96 S3        30.02F
FARMINGTON     PTCLDY    66  64  94 S5        30.05R
POPLAR BLUFF   PTCLDY    70  66  87 S3        30.01S

$$


USA.gov is the U.S. government's official web portal to all federal, state and local government web resources and services.